Cherokee Municipal Airport
Sunday 3:15 PM
Temperature75° (75°/52°)
Dew Point55°
Relative Humidity50
%
Visibility10
mi
Pressure1020.7
mb
Wind DirectionSSE
150°
Wind Speed21
mph
(G29)
Precipitation Today0.00"

Last 30 Observations

Time PresWx Temp DP Feels RH% Vsby Pressure Ceiling Direction Speed 1h Precip
3:15 PM 10
mi
0.00"
2:55 PM 74° 54° 50
%
10
mi
1021.0
mb
SE
140°
21
mph
(G24)
0.00"
2:35 PM 73° 54° 51
%
10
mi
1021.3
mb
SSE
150°
17
mph
(G26)
0.00"
2:15 PM 71° 56° 58
%
10
mi
1022.0
mb
8,500
ft
SSE
150°
20
mph
0.00"
1:55 PM 69° 55° 61
%
10
mi
1022.4
mb
8,500
ft
SSE
150°
16
mph
(G23)
0.00"
1:35 PM 71° 56° 59
%
10
mi
1023.0
mb
8,500
ft
SSE
150°
17
mph
(G26)
0.00"
1:15 PM 68° 55° 62
%
10
mi
1023.4
mb
7,500
ft
SSE
150°
17
mph
0.00"
12:55 PM 67° 55° 66
%
10
mi
1023.7
mb
7,500
ft
SSE
160°
15
mph
0.00"
12:35 PM 66° 55° 67
%
10
mi
1024.1
mb
7,500
ft
SSE
160°
14
mph
0.00"
12:15 PM 65° 54° 68
%
10
mi
1024.1
mb
7,500
ft
SSE
160°
14
mph
(G18)
0.00"
11:55 AM 65° 54° 66
%
10
mi
1024.4
mb
6,500
ft
SSE
150°
14
mph
0.00"
11:35 AM 65° 55° 69
%
10
mi
1024.4
mb
7,000
ft
SSE
150°
14
mph
0.00"
11:15 AM 65° 54° 69
%
10
mi
1024.4
mb
5,000
ft
SSE
150°
11
mph
0.00"
10:55 AM 64° 54° 69
%
10
mi
1024.7
mb
5,000
ft
SSE
150°
8
mph
0.00"
10:35 AM 64° 54° 69
%
10
mi
1024.7
mb
5,000
ft
SSE
150°
7
mph
0.00"
10:15 AM 64° 54° 69
%
10
mi
1024.7
mb
5,000
ft
SE
140°
10
mph
0.00"
9:55 AM 63° 54° 72
%
10
mi
1024.7
mb
6,000
ft
SE
140°
7
mph
0.00"
9:35 AM 63° 53° 72
%
10
mi
1024.7
mb
6,000
ft
SE
140°
9
mph
0.00"
9:15 AM 62° 53° 72
%
10
mi
1024.7
mb
6,000
ft
SE
140°
8
mph
0.00"
8:55 AM 62° 52° 70
%
10
mi
1025.1
mb
6,000
ft
SE
130°
9
mph
0.00"
8:35 AM 62° 53° 73
%
10
mi
1024.7
mb
6,000
ft
ESE
120°
8
mph
0.00"
8:15 AM 62° 54° 76
%
10
mi
1024.7
mb
6,000
ft
ESE
120°
9
mph
0.00"
7:55 AM 61° 55° 79
%
10
mi
1024.7
mb
6,000
ft
ESE
120°
5
mph
0.00"
7:35 AM 59° 57° 93
%
10
mi
1024.7
mb
6,000
ft
Calm 0.00"
7:15 AM 57° 56° 96
%
10
mi
1024.7
mb
6,000
ft
Calm 0.00"
6:55 AM 56° 56° 97
%
10
mi
1024.4
mb
6,000
ft
Calm 0.00"
6:35 AM 56° 55° 98
%
10
mi
1024.4
mb
6,000
ft
Calm 0.00"
6:15 AM 55° 55° 99
%
10
mi
1024.1
mb
6,000
ft
Calm 0.00"
5:55 AM 55° 55° 100
%
10
mi
1024.1
mb
6,000
ft
Calm 0.00"
5:35 AM 55° 54° 99
%
10
mi
1023.7
mb
6,000
ft
Calm 0.00"